N7NKE Weather Reports


time (UTC)temp
F
wind
direction
speed
knots
gust
knots
rain 1hr
in
rain 24hr
in
rain mn
in
humidity
%
barometer
mb
20210723162005 62 355 2.6 5.2 0.00 0.00 0.00 63 1024.5
20210723161504 62 338 4.3 7.0 0.00 0.00 0.00 65 1024.4
20210723161005 62 345 1.7 5.2 0.00 0.00 0.00 67 1024.5
20210723160504 61 334 2.6 7.0 0.00 0.00 0.00 67 1024.5
20210723160004 61 348 2.6 5.2 0.00 0.00 0.00 68 1024.5
20210723155504 60 339 1.7 2.6 0.00 0.00 0.00 69 1024.5
20210723155005 60 358 2.6 4.3 0.00 0.00 0.00 69 1024.6
20210723154504 60 2 2.6 5.2 0.00 0.00 0.00 70 1024.5
20210723154005 60 352 2.6 7.0 0.00 0.00 0.00 69 1024.6
20210723153504 60 335 2.6 5.2 0.00 0.00 0.00 69 1024.6
20210723153005 59 355 4.3 8.7 0.00 0.00 0.00 69 1024.6
20210723152504 59 353 2.6 7.8 0.00 0.00 0.00 69 1024.6
20210723152005 59 347 3.5 7.0 0.00 0.00 0.00 71 1024.6
20210723151504 58 2 2.6 7.0 0.00 0.00 0.00 71 1024.7
20210723151005 57 347 2.6 7.0 0.00 0.00 0.00 74 1024.7
20210723150504 57 22 2.6 4.3 0.00 0.00 0.00 76 1024.6
20210723150005 56 350 1.7 5.2 0.00 0.00 0.00 78 1024.6
20210723145506 55 3 1.7 2.6 0.00 0.00 0.00 81 1024.5
20210723145005 55 18 0.9 1.7 0.00 0.00 0.00 82 1024.6
20210723144504 54 9 0.0 1.7 0.00 0.00 0.00 82 1024.6
20210723144005 54 9 0.9 1.7 0.00 0.00 0.00 82 1024.5
20210723143504 54 114 0.9 1.7 0.00 0.00 0.00 82 1024.5
20210723143005 53 146 0.0 0.9 0.00 0.00 0.00 82 1024.5
20210723142504 53 145 0.9 1.7 0.00 0.00 0.00 82 1024.4
20210723142005 53 120 0.0 0.9 0.00 0.00 0.00 84 1024.4
20210723141504 53 120 0.0 1.7 0.00 0.00 0.00 84 1024.4
20210723141004 52 126 0.9 2.6 0.00 0.00 0.00 84 1024.3
20210723140505 52 101 1.7 2.6 0.00 0.00 0.00 85 1024.3
20210723140005 52 166 0.9 2.6 0.00 0.00 0.00 85 1024.3
20210723135504 52 166 0.0 2.6 0.00 0.00 0.00 85 1024.3
20210723135005 52 286 0.9 2.6 0.00 0.00 0.00 85 1024.3
20210723134504 51 293 1.7 4.3 0.00 0.00 0.00 85 1024.3
20210723134004 51 18 1.7 2.6 0.00 0.00 0.00 84 1024.2
20210723133505 51 136 0.0 2.6 0.00 0.00 0.00 85 1024.2
20210723133005 51 134 1.7 4.3 0.00 0.00 0.00 85 1024.2
20210723132504 51 156 2.6 4.3 0.00 0.00 0.00 86 1024.1
20210723132006 50 148 0.9 2.6 0.00 0.00 0.00 86 1024.1
20210723131504 50 163 0.9 2.6 0.00 0.00 0.00 86 1024.0
20210723131005 50 190 0.9 1.7 0.00 0.00 0.00 85 1024.0
20210723130504 50 190 0.9 1.7 0.00 0.00 0.00 85 1023.9
20210723130004 50 190 0.9 0.9 0.00 0.00 0.00 85 1023.9
20210723125505 50 190 0.9 1.7 0.00 0.00 0.00 85 1023.9
20210723125005 50 243 0.9 1.7 0.00 0.00 0.00 85 1023.9
20210723124504 50 243 0.9 2.6 0.00 0.00 0.00 85 1023.8
20210723124005 50 241 1.7 2.6 0.00 0.00 0.00 85 1023.7
20210723123504 50 271 0.9 1.7 0.00 0.00 0.00 84 1023.8
20210723123004 51 226 0.0 0.9 0.00 0.00 0.00 84 1023.8
20210723122504 51 226 0.0 0.9 0.00 0.00 0.00 84 1023.7
20210723122005 51 226 0.9 1.7 0.00 0.00 0.00 84 1023.7
20210723121504 51 226 0.9 1.7 0.00 0.00 0.00 84 1023.6
20210723121005 51 226 0.9 2.6 0.00 0.00 0.00 84 1023.6
20210723120505 51 221 0.9 1.7 0.00 0.00 0.00 84 1023.6
20210723120005 51 221 0.9 1.7 0.00 0.00 0.00 84 1023.5
20210723115504 51 221 0.9 1.7 0.00 0.00 0.00 84 1023.5
20210723115005 51 221 0.0 0.9 0.00 0.00 0.00 84 1023.4
20210723114504 51 221 0.0 0.9 0.00 0.00 0.00 83 1023.4
20210723114005 51 221 0.0 1.7 0.00 0.00 0.00 83 1023.4
20210723113503 51 221 0.9 1.7 0.00 0.00 0.00 83 1023.4
20210723113004 52 221 0.9 1.7 0.00 0.00 0.00 83 1023.4
20210723112504 52 221 0.0 1.7 0.00 0.00 0.00 82 1023.4
20210723112004 52 221 0.9 1.7 0.00 0.00 0.00 82 1023.2
20210723111505 52 221 1.7 2.6 0.00 0.00 0.00 82 1023.2
20210723111005 52 272 0.0 1.7 0.00 0.00 0.00 82 1023.3
20210723110504 52 272 0.0 1.7 0.00 0.00 0.00 82 1023.3
20210723110004 52 272 0.0 0.9 0.00 0.00 0.00 82 1023.3
20210723105504 52 272 0.0 0.9 0.00 0.00 0.00 82 1023.3
20210723105005 52 272 0.0 1.7 0.00 0.00 0.00 82 1023.3
20210723104504 52 272 0.0 1.7 0.00 0.00 0.00 82 1023.3
20210723104005 53 272 0.0 1.7 0.00 0.00 0.00 81 1023.2
20210723103504 53 249 0.9 1.7 0.00 0.00 0.00 81 1023.1
20210723103005 53 244 0.9 2.6 0.00 0.00 0.00 81 1023.1
20210723102504 53 235 0.9 2.6 0.00 0.00 0.00 81 1023.1
20210723102005 53 237 1.7 2.6 0.00 0.00 0.00 81 1023.1
20210723101504 53 263 1.7 2.6 0.00 0.00 0.00 80 1023.1
20210723101005 53 296 0.9 1.7 0.00 0.00 0.00 81 1023.0
20210723100505 53 286 0.9 1.7 0.00 0.00 0.00 80 1022.9
20210723100004 53 242 0.9 2.6 0.00 0.00 0.00 80 1022.9
20210723095504 54 242 0.9 1.7 0.00 0.00 0.00 80 1022.8
20210723095005 54 239 0.9 1.7 0.00 0.00 0.00 80 1022.9
20210723094504 54 239 0.0 0.9 0.00 0.00 0.00 79 1022.9
20210723094004 54 239 0.9 1.7 0.00 0.00 0.00 79 1022.9
20210723093504 54 239 1.7 2.6 0.00 0.00 0.00 78 1022.8
20210723093005 55 289 0.9 1.7 0.00 0.00 0.00 77 1022.8
20210723092504 55 344 0.9 0.9 0.00 0.00 0.00 77 1022.8
20210723092005 55 344 0.0 0.0 0.00 0.00 0.00 77 1022.7
20210723091504 55 344 0.0 0.9 0.00 0.00 0.00 76 1022.8
20210723091005 56 344 0.0 1.7 0.00 0.00 0.00 77 1022.7
20210723090504 55 342 0.9 1.7 0.00 0.00 0.00 77 1022.7
20210723090004 55 345 1.7 2.6 0.00 0.00 0.00 78 1022.7
20210723085504 55 352 0.9 2.6 0.00 0.00 0.00 78 1022.7
20210723085005 55 352 0.9 2.6 0.00 0.00 0.00 78 1022.6
20210723084504 55 8 0.9 2.6 0.00 0.00 0.00 78 1022.5
20210723084005 55 315 0.0 0.9 0.00 0.00 0.00 77 1022.5
20210723083504 56 315 0.0 0.9 0.00 0.00 0.00 77 1022.5
20210723083005 56 315 0.0 1.7 0.00 0.00 0.00 77 1022.3
20210723082504 56 317 0.9 1.7 0.00 0.00 0.00 76 1022.3
20210723082005 56 318 0.0 0.9 0.00 0.00 0.00 76 1022.3
20210723081504 56 318 0.0 0.9 0.00 0.00 0.00 76 1022.3
20210723081005 57 300 0.9 1.7 0.00 0.00 0.00 75 1022.3
20210723080505 57 306 0.0 1.7 0.00 0.00 0.00 75 1022.3
20210723080005 58 5 0.0 0.9 0.00 0.00 0.00 74 1022.2
20210723075504 58 5 0.0 0.9 0.00 0.00 0.00 73 1022.2
20210723075004 58 5 0.0 0.9 0.00 0.00 0.00 73 1022.2
20210723074504 58 5 0.9 1.7 0.00 0.00 0.00 72 1022.2
20210723074004 59 5 0.9 1.7 0.00 0.00 0.00 71 1022.0
20210723073504 59 5 0.9 1.7 0.00 0.00 0.00 71 1022.0
20210723073005 59 5 0.0 1.7 0.00 0.00 0.00 71 1021.9
20210723072505 59 5 0.9 2.6 0.00 0.00 0.00 70 1022.0
20210723072004 60 14 0.9 2.6 0.00 0.00 0.00 70 1021.9
20210723071504 60 64 0.0 1.7 0.00 0.00 0.00 69 1021.8
20210723071005 60 79 0.0 0.9 0.00 0.00 0.00 69 1021.8
20210723070504 61 79 1.7 5.2 0.00 0.00 0.00 69 1021.8
20210723070005 61 73 2.6 4.3 0.00 0.00 0.00 69 1021.8
20210723065504 61 107 0.0 2.6 0.00 0.00 0.00 68 1021.8
20210723065005 61 137 0.9 1.7 0.00 0.00 0.00 68 1021.8
20210723064504 62 158 0.9 2.6 0.00 0.00 0.00 68 1021.7
20210723064005 62 73 0.0 1.7 0.00 0.00 0.00 68 1021.7
20210723063504 62 46 0.9 1.7 0.00 0.00 0.00 67 1021.6
20210723063004 62 44 0.9 1.7 0.00 0.00 0.00 67 1021.6
20210723062504 62 45 0.9 2.6 0.00 0.00 0.00 68 1021.6
20210723062004 62 25 1.7 2.6 0.00 0.00 0.00 67 1021.5
20210723061504 62 355 0.9 2.6 0.00 0.00 0.00 67 1021.5
20210723061004 63 338 1.7 2.6 0.00 0.00 0.00 66 1021.5
20210723060504 63 355 1.7 2.6 0.00 0.00 0.00 66 1021.4
20210723060004 63 348 1.7 2.6 0.00 0.00 0.00 66 1021.5
20210723055505 63 340 2.6 7.0 0.00 0.00 0.00 65 1021.4
20210723055004 63 9 2.6 6.1 0.00 0.00 0.00 66 1021.4
20210723054503 63 338 1.7 2.6 0.00 0.00 0.00 65 1021.3
20210723054005 63 330 1.7 2.6 0.00 0.00 0.00 65 1021.3
20210723053504 63 343 1.7 2.6 0.00 0.00 0.00 65 1021.2
20210723053005 64 343 2.6 5.2 0.00 0.00 0.00 66 1021.1
20210723052505 64 335 2.6 4.3 0.00 0.00 0.00 65 1021.0
20210723052004 64 344 2.6 2.6 0.00 0.00 0.00 65 1021.0
20210723051504 64 346 2.6 2.6 0.00 0.00 0.00 65 1021.0
20210723051005 64 344 2.6 2.6 0.00 0.00 0.00 64 1020.9
20210723050504 64 347 2.6 2.6 0.00 0.00 0.00 64 1020.9
20210723050005 65 343 1.7 2.6 0.00 0.00 0.00 63 1020.9
20210723045504 65 348 1.7 2.6 0.00 0.00 0.00 63 1020.9
20210723045005 65 352 1.7 2.6 0.00 0.00 0.00 62 1020.9
20210723044504 65 347 1.7 2.6 0.00 0.00 0.00 62 1020.7
20210723044005 66 349 1.7 2.6 0.00 0.00 0.00 61 1020.6
20210723043504 66 338 1.7 2.6 0.00 0.00 0.00 61 1020.6
20210723043006 66 348 1.7 2.6 0.00 0.00 0.00 60 1020.4
20210723042504 67 349 1.7 2.6 0.00 0.00 0.00 60 1020.4
20210723042005 67 352 1.7 2.6 0.00 0.00 0.00 59 1020.4
20210723041504 68 5 1.7 2.6 0.00 0.00 0.00 58 1020.3
20210723041004 68 341 1.7 2.6 0.00 0.00 0.00 58 1020.2
20210723040504 68 339 0.9 2.6 0.00 0.00 0.00 57 1020.1
20210723040004 68 339 1.7 4.3 0.00 0.00 0.00 56 1020.1
20210723035505 69 340 1.7 2.6 0.00 0.00 0.00 56 1020.0
20210723035004 69 326 2.6 2.6 0.00 0.00 0.00 56 1020.0
20210723034505 69 332 1.7 2.6 0.00 0.00 0.00 55 1020.0
20210723034004 69 337 1.7 2.6 0.00 0.00 0.00 55 1020.1
20210723033504 70 339 1.7 4.3 0.00 0.00 0.00 54 1019.9
20210723033005 70 325 2.6 4.3 0.00 0.00 0.00 54 1020.0
20210723032504 70 335 2.6 4.3 0.00 0.00 0.00 53 1019.9
20210723032005 70 337 2.6 4.3 0.00 0.00 0.00 53 1019.8
20210723031504 71 338 1.7 2.6 0.00 0.00 0.00 52 1019.8
20210723031004 71 324 2.6 7.0 0.00 0.00 0.00 52 1019.8
20210723030505 71 321 2.6 6.1 0.00 0.00 0.00 51 1019.7
20210723030005 72 334 2.6 7.0 0.00 0.00 0.00 51 1019.7
20210723025504 72 345 3.5 5.2 0.00 0.00 0.00 50 1019.7
20210723025005 72 343 4.3 7.0 0.00 0.00 0.00 51 1019.7
20210723024504 72 342 2.6 7.0 0.00 0.00 0.00 51 1019.6
20210723024005 73 333 4.3 7.0 0.00 0.00 0.00 50 1019.6
20210723023504 73 311 4.3 7.0 0.00 0.00 0.00 51 1019.6
20210723023005 73 331 3.5 7.0 0.00 0.00 0.00 50 1019.6
20210723022505 74 335 4.3 10.4 0.00 0.00 0.00 50 1019.5
20210723022004 74 336 5.2 8.7 0.00 0.00 0.00 49 1019.5
20210723021504 74 339 6.1 10.4 0.00 0.00 0.00 49 1019.4
20210723021004 75 335 5.2 8.7 0.00 0.00 0.00 49 1019.4
20210723020504 75 343 3.5 10.4 0.00 0.00 0.00 49 1019.3
20210723020004 75 337 5.2 7.8 0.00 0.00 0.00 48 1019.2
20210723015504 75 336 3.5 8.7 0.00 0.00 0.00 48 1019.2
20210723015004 76 328 5.2 7.8 0.00 0.00 0.00 48 1019.1
20210723014504 76 339 4.3 8.7 0.00 0.00 0.00 48 1019.1
20210723014005 76 329 5.2 8.7 0.00 0.00 0.00 47 1019.1
20210723013504 76 336 5.2 10.4 0.00 0.00 0.00 46 1019.1
20210723013005 76 339 6.1 8.7 0.00 0.00 0.00 46 1019.1
20210723012504 77 339 3.5 8.7 0.00 0.00 0.00 45 1019.0
20210723012005 77 334 3.5 7.8 0.00 0.00 0.00 45 1019.1
20210723011504 77 334 6.1 11.3 0.00 0.00 0.00 44 1019.0
20210723011005 77 338 4.3 10.4 0.00 0.00 0.00 44 1019.1
20210723010504 77 351 6.1 11.3 0.00 0.00 0.00 43 1019.0
20210723010003 77 333 5.2 7.8 0.00 0.00 0.00 42 1018.9
20210723005504 78 349 6.1 10.4 0.00 0.00 0.00 40 1018.9
20210723005005 78 351 5.2 10.4 0.00 0.00 0.00 41 1019.0
20210723004504 78 351 4.3 8.7 0.00 0.00 0.00 40 1018.9
20210723004004 78 348 4.3 12.2 0.00 0.00 0.00 40 1018.9
20210723003504 78 352 5.2 13.0 0.00 0.00 0.00 41 1019.0
20210723003005 78 346 4.3 8.7 0.00 0.00 0.00 42 1019.0
20210723002503 78 320 3.5 7.0 0.00 0.00 0.00 40 1018.9
20210723002005 78 332 5.2 8.7 0.00 0.00 0.00 39 1018.9
20210723001504 79 334 3.5 10.4 0.00 0.00 0.00 41 1019.0
20210723001005 79 340 3.5 10.4 0.00 0.00 0.00 40 1019.0
20210723000504 79 335 5.2 12.2 0.00 0.00 0.00 40 1019.0
20210723000004 79 340 6.1 11.3 0.00 0.00 0.00 39 1019.0
20210722235505 79 333 5.2 11.3 0.00 0.00 0.00 40 1019.0
20210722235004 79 356 6.1 12.2 0.00 0.00 0.00 39 1019.0
20210722234503 80 18 5.2 11.3 0.00 0.00 0.00 39 1019.0
20210722234005 80 339 5.2 7.8 0.00 0.00 0.00 40 1019.1
20210722233504 79 309 3.5 8.7 0.00 0.00 0.00 39 1019.1
20210722233005 79 333 5.2 7.8 0.00 0.00 0.00 38 1019.2
20210722232505 79 6 5.2 10.4 0.00 0.00 0.00 40 1019.2
20210722232004 79 7 5.2 8.7 0.00 0.00 0.00 41 1019.1
20210722231504 79 329 4.3 8.7 0.00 0.00 0.00 39 1019.2
20210722231005 79 329 4.3 11.3 0.00 0.00 0.00 41 1019.2
20210722230504 79 336 4.3 8.7 0.00 0.00 0.00 41 1019.2
20210722230003 79 340 4.3 10.4 0.00 0.00 0.00 40 1019.2
20210722225504 80 355 3.5 8.7 0.00 0.00 0.00 39 1019.2
20210722225005 80 343 3.5 8.7 0.00 0.00 0.00 40 1019.3
20210722224505 79 31 4.3 11.3 0.00 0.00 0.00 38 1019.3
20210722224005 80 9 4.3 11.3 0.00 0.00 0.00 39 1019.3
20210722223505 80 359 4.3 8.7 0.00 0.00 0.00 38 1019.4
20210722223004 81 4 2.6 10.4 0.00 0.00 0.00 41 1019.5
20210722222504 79 347 3.5 10.4 0.00 0.00 0.00 41 1019.5
20210722222004 79 352 5.2 10.4 0.00 0.00 0.00 39 1019.6
20210722221504 79 355 5.2 10.4 0.00 0.00 0.00 38 1019.6
20210722221004 79 7 5.2 10.4 0.00 0.00 0.00 39 1019.7
20210722220505 79 18 2.6 8.7 0.00 0.00 0.00 37 1019.7
20210722220004 79 351 3.5 8.7 0.00 0.00 0.00 41 1019.7
20210722215504 79 351 6.1 10.4 0.00 0.00 0.00 39 1019.8
20210722215005 79 19 1.7 8.7 0.00 0.00 0.00 38 1019.8
20210722214505 78 17 5.2 10.4 0.00 0.00 0.00 39 1019.7
20210722214005 79 21 4.3 10.4 0.00 0.00 0.00 39 1019.8
20210722213504 78 359 5.2 13.9 0.00 0.00 0.00 38 1019.9
20210722213005 78 349 4.3 10.4 0.00 0.00 0.00 41 1019.8
20210722212504 77 349 4.3 8.7 0.00 0.00 0.00 40 1019.9
20210722212004 78 354 6.1 10.4 0.00 0.00 0.00 38 1019.8
20210722211504 77 22 3.5 10.4 0.00 0.00 0.00 41 1019.9
20210722211005 77 327 4.3 7.8 0.00 0.00 0.00 40 1020.0
20210722210504 77 20 4.3 7.8 0.00 0.00 0.00 42 1020.0
20210722210004 77 344 1.7 10.4 0.00 0.00 0.00 44 1020.0
20210722205504 77 22 5.2 11.3 0.00 0.00 0.00 40 1020.1
20210722205005 77 330 1.7 7.0 0.00 0.00 0.00 43 1020.1
20210722204504 76 8 4.3 10.4 0.00 0.00 0.00 41 1020.1
20210722204005 75 328 5.2 10.4 0.00 0.00 0.00 41 1020.3
20210722203504 76 345 5.2 10.4 0.00 0.00 0.00 43 1020.3
20210722203004 76 346 4.3 7.8 0.00 0.00 0.00 42 1020.3
20210722202504 76 358 3.5 7.8 0.00 0.00 0.00 41 1020.3
20210722202005 76 335 4.3 8.7 0.00 0.00 0.00 41 1020.3
20210722201504 75 344 4.3 8.7 0.00 0.00 0.00 44 1020.4
20210722201004 74 317 3.5 8.7 0.00 0.00 0.00 43 1020.4
20210722200503 75 353 5.2 12.2 0.00 0.00 0.00 42 1020.5
20210722200004 74 342 2.6 7.8 0.00 0.00 0.00 48 1020.5
20210722195504 75 342 3.5 7.8 0.00 0.00 0.00 44 1020.6
20210722195004 74 324 3.5 8.7 0.00 0.00 0.00 45 1020.6
20210722194504 73 339 4.3 7.8 0.00 0.00 0.00 45 1020.6
20210722194004 73 55 1.7 7.0 0.00 0.00 0.00 48 1020.7
20210722193503 74 329 6.1 11.3 0.00 0.00 0.00 45 1020.7
20210722193005 74 0 2.6 8.7 0.00 0.00 0.00 48 1020.7
20210722192504 74 348 4.3 8.7 0.00 0.00 0.00 45 1020.8
20210722192004 73 343 2.6 7.8 0.00 0.00 0.00 47 1020.7
20210722191504 73 350 1.7 7.8 0.00 0.00 0.00 46 1020.8
20210722191004 73 0 4.3 7.8 0.00 0.00 0.00 46 1020.8
20210722190504 72 24 2.6 4.3 0.00 0.00 0.00 48 1020.8
20210722190004 71 342 4.3 10.4 0.00 0.00 0.00 48 1020.8
20210722185504 71 322 2.6 7.8 0.00 0.00 0.00 51 1020.8
20210722185005 71 19 5.2 10.4 0.00 0.00 0.00 49 1020.9
20210722184505 71 9 4.3 7.0 0.00 0.00 0.00 52 1020.9
20210722184004 70 340 5.2 10.4 0.00 0.00 0.00 53 1020.9
20210722183504 70 17 6.1 11.3 0.00 0.00 0.00 50 1021.0
20210722183004 70 4 4.3 10.4 0.00 0.00 0.00 52 1021.0
20210722182504 69 342 4.3 10.4 0.00 0.00 0.00 51 1021.1
20210722182004 69 4 5.2 8.7 0.00 0.00 0.00 51 1021.2
20210722181504 69 1 5.2 10.4 0.00 0.00 0.00 52 1021.2
20210722181004 69 20 4.3 7.8 0.00 0.00 0.00 54 1021.2
20210722180504 68 35 2.6 7.8 0.00 0.00 0.00 56 1021.2
20210722180004 68 0 5.2 10.4 0.00 0.00 0.00 53 1021.2
20210722175504 67 341 2.6 7.0 0.00 0.00 0.00 57 1021.2
20210722175004 67 309 2.6 8.7 0.00 0.00 0.00 59 1021.3
20210722174504 66 0 2.6 8.7 0.00 0.00 0.00 56 1021.2
20210722174004 65 344 6.1 10.4 0.00 0.00 0.00 58 1021.4
20210722173504 65 343 2.6 7.0 0.00 0.00 0.00 59 1021.3
20210722173005 64 12 2.6 8.7 0.00 0.00 0.00 61 1021.3
20210722172504 64 325 2.6 6.1 0.00 0.00 0.00 62 1021.4
20210722172004 64 9 3.5 7.0 0.00 0.00 0.00 62 1021.5
20210722171504 63 356 3.5 10.4 0.00 0.00 0.00 63 1021.5
20210722171004 63 354 2.6 6.1 0.00 0.00 0.00 64 1021.5
20210722170504 63 355 4.3 8.7 0.00 0.00 0.00 64 1021.8
20210722170003 63 333 3.5 7.0 0.00 0.00 0.00 65 1021.8
20210722165504 62 357 2.6 7.0 0.00 0.00 0.00 65 1021.8
20210722165004 62 347 2.6 7.0 0.00 0.00 0.00 66 1021.8
20210722164504 62 343 2.6 6.1 0.00 0.00 0.00 67 1021.8
20210722164005 62 16 1.7 8.7 0.00 0.00 0.00 70 1021.8
20210722163504 61 333 1.7 7.0 0.00 0.00 0.00 69 1021.8
20210722163005 61 338 2.6 8.7 0.00 0.00 0.00 70 1021.9
20210722162504 61 338 4.3 7.0 0.00 0.00 0.00 71 1021.9